Cedar Rapids, IA

8:04 PM CST on November 15, 2019 (GMT -0600)
The Eastern Iowa Airport

Weather History for KCID - September, 2019

Change the Weather History Date:

Thursday, September 26, 2019

  Actual Average Record
Temperature  
Mean Temperature 59 °F 58 °F  
Max Temperature 72 °F 70 °F 88 °F (1908)
Min Temperature 46 °F 46 °F 24 °F (1926)
Degree Days  
Heating Degree Days 6 8  
Month to date heating degree days 24 104  
Since 1 July heating degree days 32 123  
Cooling Degree Days 0 1  
Month to date cooling degree days 125 68  
Year to date cooling degree days 777 736  
Growing Degree Days 9 (Base 50)    
Moisture  
Dew Point 48 °F    
Average Humidity 68    
Maximum Humidity 100    
Minimum Humidity 35    
Precipitation  
Precipitation 0.00 in 0.10 in 3.80 in (1930)
Month to date precipitation 4.82 2.80  
Year to date precipitation 32.67 28.10  
Sea Level Pressure  
Sea Level Pressure 29.93 in    
Wind  
Wind Speed 8 mph (SW)    
Max Wind Speed 18 mph    
Max Gust Speed 27 mph    
Visibility 10 miles    
Events      
T = Trace of Precipitation, MM = Missing Value Source: NWS Daily Summary

Daily Weather History Graph

Daily Weather History Graph

Search for Another Location

Airport or City:

Astronomy

Sep. 26, 2019 Rise Set
Actual Time 6:58 AM CDT 6:57 PM CDT
Civil Twilight 6:30 AM CDT 7:25 PM CDT
Nautical Twilight 5:57 AM CDT 7:57 PM CDT
Astronomical Twilight 5:24 AM CDT 8:30 PM CDT
Moon 4:01 AM CDT (9/26) 6:14 PM CDT (9/26)
Length of Visible Light 12h 54m
Length of Day
11h 59m
Waning Crescent, 6% of the Moon is Illuminated
Sep 26
Waning Crescent
Sep 28
New
Oct 5
First Quarter
Oct 13
Full
Oct 21
Last Quarter

Hourly Weather History & Observations

Time (CDT) Temp. Dew Point Humidity Pressure Visibility Wind Dir Wind Speed Gust Speed Precip Events Conditions
12:52 AM 57.9 °F 50.0 °F 75% 29.95 in 10.0 mi WNW 10.4 mph - N/A   Partly Cloudy
1:52 AM 54.0 °F 48.9 °F 83% 29.94 in 10.0 mi WNW 8.1 mph - N/A   Clear
2:52 AM 50.0 °F 48.0 °F 93% 29.94 in 10.0 mi West 5.8 mph - N/A   Clear
3:52 AM 50.0 °F 48.0 °F 93% 29.96 in 10.0 mi West 3.5 mph - N/A   Clear
4:52 AM 48.0 °F 46.9 °F 96% 29.98 in 10.0 mi West 4.6 mph - N/A   Clear
5:52 AM 46.9 °F 46.0 °F 97% 29.99 in 10.0 mi West 4.6 mph - N/A   Clear
6:52 AM 46.9 °F 46.0 °F 97% 30.00 in 10.0 mi South 3.5 mph - N/A   Clear
7:52 AM 48.9 °F 48.0 °F 97% 30.01 in 10.0 mi WSW 3.5 mph - N/A   Clear
8:52 AM 55.0 °F 51.1 °F 86% 30.00 in 10.0 mi WSW 8.1 mph - N/A   Clear
9:52 AM 59.0 °F 51.1 °F 75% 30.01 in 10.0 mi West 5.8 mph - N/A   Clear
10:52 AM 64.0 °F 51.1 °F 63% 30.01 in 10.0 mi Variable 4.6 mph - N/A   Clear
11:52 AM 69.1 °F 48.0 °F 47% 30.01 in 10.0 mi West 15.0 mph 23.0 mph N/A   Clear
12:52 PM 70.0 °F 45.0 °F 41% 29.99 in 10.0 mi West 16.1 mph 24.2 mph N/A   Clear
1:52 PM 71.1 °F 44.1 °F 38% 29.96 in 10.0 mi West 16.1 mph 23.0 mph N/A   Clear
2:52 PM 72.0 °F 44.1 °F 37% 29.94 in 10.0 mi West 12.7 mph 20.7 mph N/A   Clear
3:52 PM 72.0 °F 43.0 °F 35% 29.91 in 10.0 mi WSW 9.2 mph - N/A   Clear
4:52 PM 71.1 °F 45.0 °F 39% 29.89 in 10.0 mi South 5.8 mph - N/A   Mostly Cloudy
5:52 PM 69.1 °F 46.9 °F 45% 29.88 in 10.0 mi South 6.9 mph - N/A   Clear
6:52 PM 64.0 °F 50.0 °F 60% 29.86 in 10.0 mi SE 4.6 mph - N/A   Partly Cloudy
7:52 PM 63.0 °F 51.1 °F 65% 29.84 in 10.0 mi SSE 4.6 mph - N/A   Mostly Cloudy
8:52 PM 62.1 °F 48.9 °F 62% 29.85 in 10.0 mi South 6.9 mph - N/A   Clear
9:52 PM 62.1 °F 48.9 °F 62% 29.84 in 10.0 mi South 10.4 mph - N/A   Mostly Cloudy
10:52 PM 63.0 °F 48.0 °F 58% 29.82 in 10.0 mi SSE 9.2 mph - N/A   Overcast
11:52 PM 63.0 °F 48.0 °F 58% 29.80 in 10.0 mi South 11.5 mph - N/A   Overcast